User: anonymous   Login
Location: Unspecified
(0.0000°N, 0.0000°E)
Time: 00:45:26
(UTC+00:00)
Language:

E-STAR-II - Orbit

View from above orbital plane
View from above orbital plane
View from above satellite
View from above satellite

Ground track
Ground track

The orbit data is extracted from the following two-line orbital elements,

1 41459U 16025D   21023.73585640  .00003203  00000-0  16071-3 0  9999
2 41459  98.1218 151.5957 0162619 189.7144 170.0930 15.07312699260614
Epoch (UTC): 23 January 2021 17:39:37
Eccentricity: 0.0162619
inclination: 98.1218°
perigee height: 432 km
apogee height: 657 km
right ascension of ascending node: 151.5957°
argument of perigee: 189.7144°
revolutions per day: 15.07312699
mean anomaly at epoch: 170.0930°
orbit number at epoch: 26061

The dashed part of the orbit path shows where the satellite is in the earth's shadow,  

DLR